Powrót do katalogu

DELTA 1 R/B

AktywnyLEO
NORAD 6237·ROCKET BODY·🇺🇸 United States

Wystrzelony Oct 15, 1972 z Vandenberg Space Force Base

Loading…

Następne Przeloty (najbliższe 24 godziny)

TLE

ŚwieżeSource: Space-Track

Epoka: Sep 14, 2026, 14:44 UTC

1 06237U 72082C   26257.61408236 -.00000053  00000-0  17724-4 0  9993
2 06237 102.8044 114.0555 0361665 228.0073 137.0893 13.18721875594236

Śledź DELTA 1 R/B w czasie rzeczywistym z AllMySat

Download on the App Store